Location: Glums�
(55.3568°N, 11.6856°E)
Time: 02:12:08
(UTC+00:00)

Cosmos 1703 - Pass Details

Date: 07 June 2020
Orbit: 523 x 541 km, 82.5° (Epoch: 06 July)

Event Time Altitude Azimuth Distance (km) Brightness Sun altitude
Exits shadow 01:06:04 10° 224° (SW) 1,816 5.4 -8.2°
Reaches altitude 10° 01:06:08 10° 224° (SW) 1,790 5.3 -8.2°
Maximum altitude 01:09:44 34° 291° (WNW) 900 4.4 -7.9°
Drops below altitude 10° 01:13:21 10° 357° (N) 1,794 7.0 -7.7°
Sets 01:15:39 0° 7° (N) 2,686 8.3 -7.5°
